Location: Krakow
(50.0212°N, 19.9423°E)
Time: 00:25:06
(UTC+02:00)

NOAA 18 - Pass Details

Date: 18 August 2024
Orbit: 837 x 859 km, 98.9° (Epoch: 19 September)

Event Time Altitude Azimuth Distance (km) Brightness Sun altitude
Exits shadow 22:57:04 44° 193° (SSW) 1,175 5.6 -23.0°
Maximum altitude 22:58:46 66° 257° (WSW) 935 5.4 -23.2°
Drops below altitude 10° 23:04:19 10° 340° (NNW) 2,506 8.7 -23.6°
Sets 23:06:44 0° 343° (NNW) 3,447 9.8 -23.7°
